Flag for Canada Weather past 2 weeks in Owen Sound, Ontario, Canada

Now
79 °F

Scattered clouds.


Feels Like: 81 °F
Forecast: 60 / 76 °F
Wind: 12 mph from West

Location: Wiarton

Current Time: Aug 30, 2015 at 2:27:22 PM

Latest Report: Aug 30, 2015 at 2:00 PM


Visibility: 12 mi

Pressure: 30.05 "Hg

Humidity: 65%

Dew point: 66 °F

Location of Owen SoundLocation

Historic Weather in Owen Sound — Graph

°F

Owen Sound temperature yesterday

Maximum temperature yesterday: 68 °F (at 2:00 PM)
Minimum temperature yesterday: 59 °F (at 1:00 AM)
Average temperature yesterday: 64 °F

Past Weeks' High & Low Weather Summary

 TemperatureHumidityPressure
High86 °F (Aug 19, 4:00 PM)100% (Aug 16, 1:00 AM)30.19 "Hg (Aug 16, 1:00 AM)
Low52 °F (Aug 22, 12:00 AM)54% (Aug 22, 2:00 PM)29.60 "Hg (Aug 20, 6:00 AM)
Average67 °F82%29.98 "Hg
* Reported Aug 15 1:00 PM — Aug 30 1:00 PM, Owen Sound, Weather by CustomWeather, © 2015

Note: Actual official high and low records may vary slightly from our data, if they occured in-between our weather recording intervals... More about our weather records

Advertising

Owen Sound weather history for previous 24 hours

 ConditionsComfort  
Time TempWeatherWind HumidityBarometerVisibility
1:00 PM
Sun, Aug 30
75 °FBroken clouds.12 mph69%30.06 "Hg15 mi
12:00 PM73 °FPartly sunny.12 mph74%30.08 "Hg15 mi
11:00 AM70 °FPartly sunny.6 mph78%30.09 "Hg12 mi
10:00 AM77 °FBroken clouds.2 mph69%30.09 "Hg10 mi
9:00 AM66 °FFog.No wind94%30.09 "Hg6 mi
8:00 AM63 °FFog.No wind94%30.09 "Hg4 mi
7:00 AM61 °FFog.2 mph94%30.08 "Hg4 mi
6:00 AM61 °FFog.No wind94%30.06 "Hg5 mi
5:00 AM63 °FFog.2 mph94%30.05 "Hg5 mi
4:00 AM63 °FPassing clouds.2 mph94%30.05 "Hg10 mi
3:00 AM63 °FOvercast.2 mph94%30.05 "Hg12 mi
2:00 AM63 °FOvercast.No wind94%30.06 "Hg12 mi
1:00 AM63 °FPassing clouds.No wind94%30.08 "Hg12 mi
12:00 AM63 °FOvercast.No wind94%30.08 "Hg10 mi
11:00 PM
Sat, Aug 29
63 °FPassing clouds.No wind94%30.09 "Hg10 mi
10:00 PM63 °FPartly cloudy.No wind94%30.09 "Hg10 mi
9:00 PM63 °FPartly sunny.No wind100%30.08 "Hg10 mi
8:00 PM66 °FPartly sunny.5 mph88%30.07 "Hg10 mi
7:00 PM66 °FMore clouds than sun.2 mph88%30.09 "Hg10 mi
6:00 PM66 °FOvercast.6 mph94%30.09 "Hg12 mi
5:00 PM68 °FOvercast.2 mph83%30.10 "Hg12 mi
4:00 PM68 °FSprinkles. Overcast.6 mph83%30.11 "Hg12 mi
3:00 PM68 °FMore clouds than sun.6 mph83%30.13 "Hg10 mi
2:00 PM68 °FMore clouds than sun.6 mph83%30.14 "Hg10 mi
Weather by CustomWeather, © 2015

See weather overviewHow to use our weather pages